EW6800 Weather Reports


time (UTC)temp
C
wind
direction
speed
KPH
gust
KPH
rain 1hr
cm
rain 24hr
cm
rain mn
cm
humidity
%
barometer
mb
20260831015543 16 302 3.2 8.0 0.00 0.00 0.00 77 1013.3
20260831015043 16 305 3.2 6.4 0.00 0.00 0.00 76 1013.2
20260831014557 16 294 3.2 8.0 0.00 0.00 0.00 76 1013.2
20260831014043 16 302 3.2 8.0 0.00 0.00 0.00 75 1013.3
20260831013543 16 313 3.2 6.4 0.00 0.00 0.00 74 1013.3
20260831013108 17 313 3.2 8.0 0.00 0.00 0.00 73 1013.3
20260831012546 17 308 3.2 8.0 0.00 0.00 0.00 73 1013.3
20260831012046 17 305 3.2 8.0 0.00 0.00 0.00 72 1013.4
20260831011603 17 305 3.2 6.4 0.00 0.00 0.00 72 1013.4
20260831011048 17 304 1.6 6.4 0.00 0.00 0.00 71 1013.4
20260831010545 17 304 3.2 8.0 0.00 0.00 0.00 71 1013.5
20260831010058 18 303 4.8 9.7 0.00 0.00 0.00 70 1013.5
20260831005543 18 311 4.8 11.3 0.00 0.00 0.00 70 1013.5
20260831005044 18 303 4.8 11.3 0.00 0.00 0.00 69 1013.4
20260831004555 18 296 4.8 11.3 0.00 0.00 0.00 68 1013.5
20260831004044 18 296 4.8 11.3 0.00 0.00 0.00 67 1013.4
20260831003543 19 296 4.8 11.3 0.00 0.00 0.00 68 1013.4
20260831003104 19 306 6.4 11.3 0.00 0.00 0.00 67 1013.5
20260831002543 19 311 4.8 11.3 0.00 0.00 0.00 66 1013.5
20260831002045 19 298 4.8 11.3 0.00 0.00 0.00 66 1013.6
20260831001600 20 309 4.8 11.3 0.00 0.00 0.00 66 1013.6
20260831001043 20 301 4.8 11.3 0.00 0.00 0.00 65 1013.6
20260831000543 20 308 4.8 11.3 0.00 0.00 0.00 65 1013.7
20260831000106 20 302 4.8 11.3 0.00 0.00 0.00 66 1013.6
20260830235543 20 301 4.8 9.7 0.00 0.00 0.00 66 1013.6
20260830235046 20 298 4.8 11.3 0.00 0.00 0.00 65 1013.6
20260830234600 20 301 6.4 11.3 0.00 0.00 0.00 64 1013.7
20260830234043 20 304 4.8 8.0 0.00 0.00 0.00 64 1013.7
20260830233543 20 294 4.8 11.3 0.00 0.00 0.00 63 1013.6
20260830233103 20 302 4.8 11.3 0.00 0.00 0.00 63 1013.7
20260830232542 20 315 6.4 11.3 0.00 0.00 0.00 63 1013.6
20260830232046 20 304 4.8 11.3 0.00 0.00 0.00 63 1013.7
20260830231606 20 313 3.2 12.9 0.00 0.00 0.00 62 1013.8
20260830231045 21 300 6.4 12.9 0.00 0.00 0.00 62 1013.7
20260830230544 21 306 6.4 12.9 0.00 0.00 0.00 61 1013.7
20260830230052 21 315 8.0 12.9 0.00 0.00 0.00 61 1013.7
20260830225544 21 296 4.8 12.9 0.00 0.00 0.00 62 1013.8
20260830225046 21 304 6.4 12.9 0.00 0.00 0.00 61 1013.8
20260830224600 21 296 6.4 11.3 0.00 0.00 0.00 60 1013.9
20260830224044 21 317 6.4 11.3 0.00 0.00 0.00 60 1013.9
20260830223544 21 317 4.8 11.3 0.00 0.00 0.00 60 1013.9
20260830223110 21 312 4.8 11.3 0.00 0.00 0.00 60 1013.9
20260830222546 21 313 4.8 11.3 0.00 0.00 0.00 60 1014.0
20260830222044 21 302 4.8 11.3 0.00 0.00 0.00 61 1014.0
20260830221553 21 303 1.6 9.7 0.00 0.00 0.00 62 1014.0
20260830221044 21 303 4.8 11.3 0.00 0.00 0.00 61 1014.0
20260830220544 21 311 6.4 11.3 0.00 0.00 0.00 61 1014.0
20260830220050 21 299 4.8 12.9 0.00 0.00 0.00 61 1014.1
20260830215545 21 296 4.8 12.9 0.00 0.00 0.00 61 1014.3
20260830215045 21 292 4.8 12.9 0.00 0.00 0.00 61 1014.4
20260830214615 21 304 6.4 12.9 0.00 0.00 0.00 60 1014.4
20260830214045 21 297 6.4 12.9 0.00 0.00 0.00 60 1014.5
20260830213544 21 318 4.8 11.3 0.00 0.00 0.00 59 1014.6
20260830213102 21 310 4.8 11.3 0.00 0.00 0.00 58 1014.8
20260830212544 22 307 3.2 8.0 0.00 0.00 0.00 57 1014.7
20260830212045 22 311 3.2 8.0 0.00 0.00 0.00 56 1014.8
20260830211607 22 278 1.6 4.8 0.00 0.00 0.00 56 1015.0
20260830211045 22 296 3.2 8.0 0.00 0.00 0.00 56 1014.9
20260830210544 22 0 0.0 8.0 0.00 0.00 0.00 55 1014.9
20260830210117 23 15 0.0 3.2 0.00 0.00 0.00 55 1014.9
20260830205546 23 0 0.0 4.8 0.00 0.00 0.00 55 1015.0
20260830205046 22 0 0.0 6.4 0.00 0.00 0.00 57 1015.1
20260830204600 22 348 3.2 6.4 0.00 0.00 0.00 56 1014.9
20260830204044 22 0 0.0 4.8 0.00 0.00 0.00 56 1014.9
20260830203544 21 351 0.0 4.8 0.00 0.00 0.00 59 1015.0
20260830203053 21 0 0.0 8.0 0.00 0.00 0.00 59 1015.0
20260830202544 20 351 3.2 8.0 0.00 0.00 0.00 60 1015.0
20260830202044 20 330 1.6 6.4 0.00 0.00 0.00 62 1015.0
20260830201605 20 335 3.2 6.4 0.00 0.00 0.00 62 1015.0
20260830201044 20 327 1.6 6.4 0.00 0.00 0.00 62 1015.0
20260830200546 20 336 1.6 6.4 0.00 0.00 0.00 61 1015.1
20260830200104 20 0 0.0 6.4 0.00 0.00 0.00 63 1015.1
20260830195543 20 0 0.0 8.0 0.00 0.00 0.00 64 1015.1
20260830195045 20 323 1.6 8.0 0.00 0.00 0.00 65 1015.2
20260830194553 20 299 1.6 6.4 0.00 0.00 0.00 64 1015.2
20260830194043 19 305 1.6 4.8 0.00 0.00 0.00 65 1015.4
20260830193543 19 304 1.6 6.4 0.00 0.00 0.00 65 1015.3
20260830193050 19 338 0.0 8.0 0.00 0.00 0.00 65 1015.3
20260830192543 19 338 1.6 8.0 0.00 0.00 0.00 65 1015.4
20260830192043 18 296 1.6 4.8 0.00 0.00 0.00 67 1015.4
20260830191559 18 310 1.6 6.4 0.00 0.00 0.00 67 1015.5
20260830191043 18 309 1.6 6.4 0.00 0.00 0.00 66 1015.4
20260830190545 18 309 3.2 6.4 0.00 0.00 0.00 66 1015.4
20260830190126 18 311 1.6 8.0 0.00 0.00 0.00 66 1015.5
20260830185543 18 242 3.2 8.0 0.00 0.00 0.00 67 1015.4
20260830185045 17 322 1.6 4.8 0.00 0.00 0.00 68 1015.4
20260830184628 17 321 1.6 6.4 0.00 0.00 0.00 69 1015.5
20260830184043 17 318 1.6 8.0 0.00 0.00 0.00 69 1015.5
20260830183543 17 318 4.8 8.0 0.00 0.00 0.00 68 1015.5
20260830183114 17 327 1.6 8.0 0.00 0.00 0.00 67 1015.4
20260830182543 16 315 3.2 8.0 0.00 0.00 0.00 68 1015.4
20260830182042 16 322 3.2 8.0 0.00 0.00 0.00 67 1015.5
20260830181559 16 331 3.2 8.0 0.00 0.00 0.00 71 1015.4
20260830181044 16 294 1.6 8.0 0.00 0.00 0.00 71 1015.4
20260830180543 16 329 3.2 8.0 0.00 0.00 0.00 71 1015.4
20260830175543 15 319 1.6 6.4 0.00 0.00 0.00 74 1015.5
20260830175045 15 319 3.2 6.4 0.00 0.00 0.00 74 1015.5
20260830174603 15 317 3.2 6.4 0.00 0.00 0.00 75 1015.4
20260830174044 14 317 3.2 6.4 0.00 0.00 0.00 77 1015.5
20260830173544 14 318 3.2 6.4 0.00 0.00 0.00 79 1015.5
20260830173055 13 317 3.2 6.4 0.00 0.00 0.00 79 1015.5
20260830172543 13 317 3.2 8.0 0.00 0.00 0.00 79 1015.5
20260830172043 13 323 3.2 8.0 0.00 0.00 0.00 80 1015.4
20260830171559 13 309 3.2 6.4 0.00 0.00 0.00 82 1015.4
20260830171042 12 310 3.2 8.0 0.00 0.00 0.00 85 1015.4
20260830170543 12 310 3.2 8.0 0.00 0.00 0.00 85 1015.4
20260830170053 12 310 4.8 8.0 0.00 0.00 0.00 86 1015.3
20260830165545 12 313 4.8 8.0 0.00 0.00 0.00 87 1015.3
20260830165043 12 317 3.2 9.7 0.00 0.00 0.00 87 1015.3
20260830164604 11 311 3.2 14.5 0.00 0.00 0.00 87 1015.3
20260830164045 11 313 6.4 14.5 0.00 0.00 0.00 88 1015.2
20260830163543 11 311 4.8 12.9 0.00 0.00 0.00 89 1015.2
20260830163051 11 312 4.8 12.9 0.00 0.00 0.00 90 1015.2
20260830162542 11 317 4.8 12.9 0.00 0.00 0.00 90 1015.3
20260830162046 11 323 4.8 11.3 0.00 0.00 0.00 91 1015.3
20260830161552 11 323 3.2 8.0 0.00 0.00 0.00 93 1015.2
20260830161042 11 320 4.8 8.0 0.00 0.00 0.00 93 1015.3
20260830160542 10 316 3.2 8.0 0.00 0.00 0.00 94 1015.4
20260830155543 10 327 3.2 6.4 0.00 0.00 0.00 95 1015.3
20260830155043 10 317 3.2 8.0 0.00 0.00 0.00 95 1015.4
20260830154557 10 317 3.2 9.7 0.00 0.00 0.00 95 1015.4
20260830154045 10 319 4.8 9.7 0.00 0.00 0.00 95 1015.4
20260830153543 10 318 3.2 9.7 0.00 0.00 0.00 95 1015.4
20260830153113 10 309 4.8 9.7 0.00 0.00 0.00 95 1015.4
20260830152543 10 311 4.8 9.7 0.00 0.00 0.00 95 1015.5
20260830152043 10 313 3.2 9.7 0.00 0.00 0.00 95 1015.4
20260830151601 10 304 3.2 12.9 0.00 0.00 0.00 95 1015.4
20260830151043 10 304 4.8 12.9 0.00 0.00 0.00 95 1015.4
20260830150544 10 306 4.8 8.0 0.00 0.00 0.00 95 1015.3
20260830150106 10 313 3.2 14.5 0.00 0.00 0.00 95 1015.4
20260830145547 9 320 4.8 14.5 0.00 0.00 0.00 95 1015.3
20260830145044 9 312 4.8 14.5 0.00 0.00 0.00 95 1015.3
20260830144554 9 309 8.0 14.5 0.00 0.00 0.00 95 1015.2
20260830144043 9 311 6.4 14.5 0.00 0.00 0.00 95 1015.2
20260830143545 9 329 8.0 14.5 0.00 0.00 0.00 95 1015.2
20260830143108 9 312 8.0 14.5 0.00 0.00 0.00 95 1015.2
20260830142546 9 300 6.4 14.5 0.00 0.00 0.00 95 1015.2
20260830142041 9 316 8.0 14.5 0.00 0.00 0.00 94 1015.2
20260830141603 9 317 6.4 12.9 0.00 0.00 0.00 94 1015.1
20260830141044 9 312 6.4 12.9 0.00 0.00 0.00 94 1015.1
20260830140545 9 318 4.8 11.3 0.00 0.00 0.00 94 1015.0
20260830140057 9 315 6.4 12.9 0.00 0.00 0.00 94 1015.0
20260830135543 9 310 6.4 12.9 0.00 0.00 0.00 94 1014.9
20260830135043 9 317 8.0 12.9 0.00 0.00 0.00 94 1015.0
20260830134600 9 309 4.8 12.9 0.00 0.00 0.00 94 1014.7
20260830134043 9 311 8.0 14.5 0.00 0.00 0.00 94 1014.7
20260830133544 9 307 9.7 14.5 0.00 0.00 0.00 94 1014.6
20260830133102 9 317 9.7 16.1 0.00 0.00 0.00 94 1014.5
20260830132542 9 317 11.3 16.1 0.00 0.00 0.00 93 1014.4
20260830132043 9 294 12.9 16.1 0.00 0.00 0.00 93 1014.4
20260830131558 9 298 11.3 16.1 0.00 0.00 0.00 93 1014.4
20260830131044 9 317 9.7 16.1 0.00 0.00 0.00 92 1014.4
20260830130600 10 309 6.4 12.9 0.00 0.00 0.00 92 1014.3
20260830130056 10 309 8.0 12.9 0.00 0.00 0.00 91 1014.3
20260830125545 10 314 6.4 12.9 0.00 0.00 0.00 91 1014.4
20260830125043 10 315 6.4 12.9 0.00 0.00 0.00 93 1014.3
20260830124550 10 315 8.0 12.9 0.00 0.00 0.00 94 1014.2
20260830124044 10 319 8.0 12.9 0.00 0.00 0.00 95 1014.2
20260830123544 9 319 8.0 12.9 0.00 0.00 0.00 95 1014.3
20260830123101 9 320 6.4 9.7 0.00 0.00 0.00 95 1014.3
20260830122543 9 322 6.4 8.0 0.00 0.00 0.00 94 1014.4
20260830122043 9 322 4.8 8.0 0.00 0.00 0.00 94 1014.2
20260830121558 9 322 4.8 8.0 0.00 0.00 0.00 94 1014.2
20260830121043 9 319 4.8 8.0 0.00 0.00 0.00 94 1014.2
20260830120543 9 319 4.8 8.0 0.00 0.00 0.00 94 1014.2
20260830115544 9 314 3.2 8.0 0.00 0.00 0.00 94 1014.4
20260830115047 9 314 4.8 8.0 0.00 0.00 0.00 94 1014.3
20260830114602 9 311 4.8 8.0 0.00 0.00 0.00 94 1014.3
20260830114043 9 311 4.8 6.4 0.00 0.00 0.00 94 1014.3
20260830113545 9 311 1.6 6.4 0.00 0.00 0.00 94 1014.3
20260830113106 9 311 3.2 6.4 0.00 0.00 0.00 94 1014.3
20260830112543 9 311 3.2 8.0 0.00 0.00 0.00 94 1014.4
20260830112043 9 311 3.2 11.3 0.00 0.00 0.00 94 1014.3
20260830111600 9 294 4.8 11.3 0.00 0.00 0.00 94 1014.3
20260830111044 9 304 3.2 8.0 0.00 0.00 0.00 94 1014.3
20260830110543 9 311 4.8 8.0 0.00 0.00 0.00 94 1014.2
20260830110056 9 302 4.8 8.0 0.00 0.00 0.00 94 1014.2
20260830105546 9 316 3.2 8.0 0.00 0.00 0.00 94 1014.1
20260830105042 9 311 4.8 11.3 0.00 0.00 0.00 93 1014.2
20260830104612 9 313 4.8 11.3 0.00 0.00 0.00 93 1014.1
20260830104043 10 312 4.8 11.3 0.00 0.00 0.00 93 1014.3
20260830103546 10 320 4.8 12.9 0.00 0.00 0.00 93 1014.2
20260830103059 10 313 4.8 14.5 0.00 0.00 0.00 93 1014.2
20260830102542 10 320 8.0 14.5 0.00 0.00 0.00 93 1014.2
20260830102047 10 304 8.0 14.5 0.00 0.00 0.00 92 1014.2
20260830101553 10 306 6.4 12.9 0.00 0.00 0.00 92 1014.1
20260830101043 10 321 6.4 14.5 0.00 0.00 0.00 92 1014.2
20260830100545 10 329 6.4 14.5 0.00 0.00 0.00 92 1014.2
20260830100233 10 318 9.7 16.1 0.00 0.00 0.00 91 1014.3
20260830095544 10 315 8.0 16.1 0.00 0.00 0.00 91 1014.3
20260830095043 10 315 11.3 16.1 0.00 0.00 0.00 91 1014.3
20260830094558 10 317 9.7 14.5 0.00 0.00 0.00 90 1014.2
20260830094042 10 309 9.7 16.1 0.00 0.00 0.00 90 1014.3
20260830093542 10 297 9.7 16.1 0.00 0.00 0.00 90 1014.3
20260830093103 10 311 9.7 14.5 0.00 0.00 0.00 90 1014.3
20260830092546 10 313 9.7 16.1 0.00 0.00 0.00 90 1014.3
20260830092043 10 305 11.3 17.7 0.00 0.00 0.00 90 1014.3
20260830091558 10 336 11.3 17.7 0.00 0.00 0.00 89 1014.4
20260830091043 10 319 12.9 16.1 0.00 0.00 0.00 90 1014.4
20260830090544 10 309 11.3 16.1 0.00 0.00 0.00 90 1014.5
20260830090055 10 298 9.7 16.1 0.00 0.00 0.00 91 1014.5
20260830085542 10 303 9.7 17.7 0.00 0.00 0.00 91 1014.5
20260830085042 10 318 9.7 17.7 0.00 0.00 0.00 91 1014.6
20260830084559 10 300 12.9 17.7 0.00 0.00 0.00 91 1014.7
20260830084046 10 305 11.3 17.7 0.00 0.00 0.00 90 1014.8
20260830083546 10 315 11.3 17.7 0.00 0.00 0.00 90 1014.8
20260830083104 10 305 11.3 17.7 0.00 0.00 0.00 89 1014.8
20260830082542 11 319 9.7 17.7 0.00 0.00 0.00 88 1014.8
20260830082042 11 297 11.3 16.1 0.00 0.00 0.00 88 1015.0
20260830081609 11 303 11.3 17.7 0.00 0.00 0.00 88 1015.0
20260830081044 11 302 11.3 19.3 0.00 0.00 0.00 88 1014.9
20260830080544 11 315 11.3 19.3 0.00 0.00 0.00 88 1015.0
20260830075543 10 310 12.9 17.7 0.00 0.00 0.00 89 1015.0
20260830075048 10 309 12.9 17.7 0.00 0.00 0.00 89 1015.0
20260830074559 10 308 12.9 17.7 0.00 0.00 0.00 89 1015.0
20260830074045 10 307 12.9 17.7 0.00 0.00 0.00 89 1014.9
20260830073547 11 293 11.3 19.3 0.00 0.00 0.00 89 1014.8
20260830073107 11 313 12.9 20.9 0.00 0.00 0.00 89 1014.8
20260830072545 11 315 14.5 20.9 0.00 0.00 0.00 89 1014.9
20260830072045 11 313 14.5 20.9 0.00 0.00 0.00 89 1014.9
20260830071558 11 315 12.9 22.5 0.00 0.00 0.00 89 1014.9
20260830071048 11 298 16.1 22.5 0.00 0.00 0.00 88 1015.0
20260830070544 11 317 16.1 22.5 0.00 0.00 0.00 88 1014.9
20260830070058 11 318 14.5 24.1 0.00 0.00 0.00 87 1014.9
20260830065543 11 305 16.1 24.1 0.00 0.00 0.00 88 1015.0
20260830065045 11 314 16.1 24.1 0.00 0.00 0.00 88 1015.0
20260830064601 11 309 16.1 22.5 0.00 0.00 0.00 88 1014.9
20260830064044 11 302 16.1 22.5 0.00 0.00 0.00 87 1015.0
20260830063545 11 317 16.1 24.1 0.00 0.00 0.00 87 1014.9
20260830063109 11 302 16.1 24.1 0.00 0.00 0.00 86 1015.0
20260830062545 11 296 16.1 24.1 0.00 0.00 0.00 85 1015.1
20260830062049 11 306 17.7 24.1 0.00 0.00 0.00 84 1015.1
20260830061557 11 315 16.1 24.1 0.00 0.00 0.00 82 1015.1
20260830061044 11 307 16.1 24.1 0.00 0.00 0.00 85 1015.1
20260830060544 11 318 17.7 24.1 0.00 0.00 0.00 86 1015.2
20260830060056 11 319 17.7 24.1 0.00 0.00 0.00 87 1015.3
20260830055546 11 301 16.1 22.5 0.00 0.00 0.00 87 1015.3
20260830055047 11 296 14.5 24.1 0.00 0.00 0.00 87 1015.4
20260830054601 11 315 14.5 24.1 0.00 0.00 0.00 87 1015.4
20260830054045 11 312 16.1 22.5 0.00 0.00 0.00 86 1015.3
20260830053547 11 313 14.5 22.5 0.00 0.00 0.00 86 1015.4
20260830053101 11 309 14.5 24.1 0.00 0.00 0.00 85 1015.3
20260830052546 11 319 16.1 24.1 0.00 0.00 0.00 84 1015.3
20260830052048 11 303 16.1 24.1 0.00 0.00 0.00 83 1015.4
20260830051552 11 321 14.5 24.1 0.00 0.00 0.00 82 1015.4
20260830051044 12 315 14.5 24.1 0.00 0.00 0.00 82 1015.4
20260830050547 12 311 14.5 24.1 0.00 0.00 0.00 81 1015.5
20260830050054 12 294 16.1 22.5 0.00 0.00 0.00 81 1015.6
20260830045544 12 327 12.9 24.1 0.00 0.00 0.00 79 1015.5
20260830045045 12 317 14.5 24.1 0.00 0.00 0.00 79 1015.4
20260830044602 12 312 12.9 20.9 0.00 0.00 0.00 80 1015.5
20260830044046 12 313 14.5 20.9 0.00 0.00 0.00 77 1015.6
20260830043548 12 321 12.9 20.9 0.00 0.00 0.00 78 1015.6
20260830043059 12 298 11.3 19.3 0.00 0.00 0.00 78 1015.6
20260830042544 12 298 12.9 19.3 0.00 0.00 0.00 76 1015.6
20260830042048 12 315 12.9 19.3 0.00 0.00 0.00 77 1015.7
20260830041602 12 324 11.3 19.3 0.00 0.00 0.00 78 1015.6
20260830041046 12 302 12.9 19.3 0.00 0.00 0.00 83 1015.6
20260830040545 12 319 14.5 19.3 0.00 0.00 0.00 84 1015.4
20260830040105 12 331 12.9 20.9 0.00 0.00 0.00 84 1015.4
20260830035544 12 311 11.3 20.9 0.00 0.00 0.00 83 1015.6
20260830035044 12 303 12.9 20.9 0.00 0.00 0.00 83 1015.4
20260830034614 12 294 12.9 19.3 0.00 0.00 0.00 83 1015.4
20260830034044 12 288 12.9 20.9 0.00 0.00 0.00 83 1015.2
20260830033547 12 315 14.5 20.9 0.00 0.00 0.00 83 1015.2
20260830033112 12 317 12.9 19.3 0.00 0.00 0.00 82 1015.2
20260830032546 12 308 12.9 19.3 0.00 0.00 0.00 82 1015.2
20260830032044 12 302 12.9 19.3 0.00 0.00 0.00 82 1015.1
20260830031556 13 313 12.9 19.3 0.00 0.00 0.00 82 1015.2
20260830031046 13 293 14.5 19.3 0.00 0.00 0.00 81 1015.1
20260830030544 13 316 12.9 19.3 0.00 0.00 0.00 81 1015.1
20260830025543 13 307 14.5 22.5 0.00 0.00 0.00 78 1015.2
20260830025043 14 303 14.5 22.5 0.00 0.00 0.00 77 1015.2
20260830024558 14 308 12.9 19.3 0.00 0.00 0.00 76 1015.3
20260830024043 15 319 12.9 17.7 0.00 0.00 0.00 75 1015.4
20260830023543 15 302 11.3 17.7 0.00 0.00 0.00 73 1015.3
20260830023058 15 311 12.9 17.7 0.00 0.00 0.00 71 1015.3
20260830022544 15 303 9.7 17.7 0.00 0.00 0.00 71 1015.3
20260830022043 15 306 12.9 17.7 0.00 0.00 0.00 70 1015.3
20260830021611 16 315 11.3 17.7 0.00 0.00 0.00 69 1015.3
20260830021045 16 301 12.9 19.3 0.00 0.00 0.00 68 1015.4
20260830020545 16 321 14.5 20.9 0.00 0.00 0.00 67 1015.4
20260830020105 16 303 12.9 20.9 0.00 0.00 0.00 66 1015.4